Tracking 18942 objects as of 17-Jan-2018
HD Live streaming from Space Station
objects crossing your sky now

FENGYUN 1C DEB

Track FENGYUN 1C DEB now!
10-day predictions


NORAD ID: 30650
Int'l Code: 1999-025APH
Perigee: 833.4 km
Apogee: 952.7 km
Inclination: 99.1 °
Period: 102.7 minutes
Semi major axis: 7264 km
RCS: 0.0287 m2 (small)
Launch date: May 10, 1999
Source: People's Republic of China (PRC)
Launch site: Taiyaun Space Center, China (TSC)

Note: This is SATELLITE DEBRIS
aabbcc
Your satellite tracking list
Your tracking list is empty




NASA's NSSDC Master Catalog

Two Line Element Set (TLE):
1 30650U 99025APH 18016.85535590  .00000179  00000-0  14237-3 0  9992
2 30650  99.1319 334.1314 0082070 270.3245 155.7287 14.02284285557847
Source of the keplerian elements: AFSPC